Location: Basse Occidentale du Courleau
(48.3833°N, 4.8333°W)
Time: 09:24:44
(UTC+00:00)

BREEZE-M DEB (TANK) - Pass Details

Date: 05 July 2020
Orbit: 308 x 15751 km, 49.4° (Epoch: 07 August)

Event Time Altitude Azimuth Distance (km) Brightness Sun altitude
Rises 23:20:31 0° 293° (WNW) 4,932 7.7 -17.5°
Reaches altitude 10° 23:25:31 10° 282° (WNW) 2,602 6.1 -17.7°
Maximum altitude 23:29:24 22° 231° (SW) 1,136 3.7 -17.9°
Enters shadow 23:29:25 22° 230° (SW) 1,132 3.6 -17.9°
